CAPE
3 2 3 3 3 2 2 1 0 0 0 0 0 0 0 0 0 0 0 0 0 0 0 0 0 0 0 0 0 0 0 0 0 0 0 0 0 0 1 35 0 9 20 9 57
3 2 2 1 2 1 1 0 0 0 0 0 0 0 0 0 0 0 0 0 0 0 0 0 0 0 0 0 0 0 0 0 0 0 0 0 0 0 0 0 0 0 0 38 13
3 4 1 1 0 0 0 0 0 0 0 0 0 0 0 0 0 0 0 0 0 0 0 0 0 0 0 0 0 0 0 0 0 0 0 0 0 0 0 0 0 0 0 0 0
8 6 3 1 1 0 0 0 0 0 0 0 0 0 0 0 0 0 0 0 0 0 0 0 0 0 0 0 0 0 0 0 0 0 0 0 0 0 0 0 0 0 0 0 0
2 3 3 2 0 0 0 0 0 0 0 0 0 0 0 0 0 0 0 0 0 0 0 0 0 0 0 0 0 0 0 0 0 0 0 0 0 0 0 0 0 0 0 0 0
2 0 0 0 0 0 0 0 0 0 0 0 0 0 0 0 0 0 0 0 0 0 0 0 0 0 0 0 0 0 0 0 0 0 0 0 0 0 0 0 0 0 0 0 0
6 2 0 0 0 0 0 0 0 0 0 0 0 0 0 0 0 0 0 0 0 0 0 0 0 0 0 0 0 0 0 0 0 0 0 0 0 0 0 0 0 0 0 0 0
9 2 0 0 1 0 0 0 0 0 0 0 0 0 0 0 0 0 0 0 0 0 0 0 0 0 0 0 0 0 0 0 0 0 0 0 0 0 0 0 0 0 0 0 0
5 2 1 0 0 0 0 0 0 0 0 0 0 0 0 0 0 0 0 0 0 0 0 0 0 0 0 0 0 0 0 0 0 0 0 0 0 0 0 0 0 0 0 0 0
1 1 1 0 0 0 0 0 0 0 0 0 0 0 0 0 0 0 0 0 0 0 0 0 0 0 0 0 0 0 0 0 0 0 0 0 0 0 0 0 0 0 0 0 0
1 0 0 0 0 0 0 0 0 0 0 0 0 0 0 0 0 0 0 0 0 0 0 0 0 0 0 0 0 0 0 0 0 0 0 0 0 0 0 0 0 0 0 0 0
2 0 0 0 0 0 0 0 0 0 0 0 0 0 0 0 0 0 0 0 0 0 0 0 0 0 0 0 0 0 0 0 0 0 0 0 0 0 0 0 0 0 0 0 0
3 1 0 0 0 0 0 0 0 0 0 0 0 0 0 0 0 0 0 0 0 0 0 0 0 0 0 0 0 0 0 0 0 0 0 0 0 0 0 0 0 0 0 0 0
6 2 0 0 0 0 0 0 0 0 0 0 0 0 0 0 0 0 0 0 0 0 0 0 0 0 0 0 0 0 0 0 0 0 0 0 0 0 0 0 0 0 0 0 0
0 4 1 0 0 0 0 0 0 0 0 0 0 0 0 0 0 0 0 0 0 0 0 0 0 0 0 0 0 0 0 0 0 0 0 0 0 0 0 0 0 0 0 0 0
0 0 0 0 0 0 0 0 0 0 0 0 0 0 0 0 0 0 0 0 0 0 0 0 0 0 0 0 0 0 0 0 0 0 0 0 0 0 0 0 0 0 0 0 0
0 0 0 0 0 0 0 0 0 0 0 0 0 0 0 0 0 0 0 0 0 0 0 0 0 0 0 0 0 0 0 0 0 0 0 0 0 0 0 0 0 0 0 0 0
0 0 0 0 0 0 0 0 0 0 0 0 0 0 0 0 0 0 0 0 0 0 0 0 0 0 0 0 0 0 0 0 0 0 0 0 0 0 0 0 0 0 0 0 0
0 0 0 0 0 0 0 0 0 0 0 0 0 0 0 0 0 0 0 0 0 0 0 0 0 0 0 0 0 0 0 0 0 0 0 0 0 0 0 0 0 0 0 0 0
0 0 0 0 0 0 0 0 0 0 0 0 0 0 0 0 0 0 0 0 0 0 0 0 0 0 0 0 0 0 0 0 0 0 0 0 0 0 0 0 0 0 0 0 0
0 0 0 0 3 4 0 0 0 0 0 0 0 0 0 0 0 0 0 0 0 0 0 0 0 0 0 0 0 0 0 0 0 0 0 0 0 0 0 0 0 0 0 0 0
0 0 0 0 3 2 0 0 0 0 0 0 0 0 0 0 0 0 0 0 0 0 0 0 0 0 0 0 0 0 0 0 0 0 0 0 0 0 0 0 0 0 0 0 0
0 0 0 0 0 3 1 0 4 0 0 0 0 0 0 0 0 0 0 0 0 0 0 0 0 0 0 0 0 0 0 0 0 0 0 0 0 0 0 0 0 0 0 0 0
0 0 0 0 0 0 1 0 0 0 0 0 0 0 0 0 0 0 0 0 0 0 0 0 0 0 0 0 0 0 0 0 0 0 0 0 0 0 0 0 0 0 0 0 0
0 1 0 0 0 0 0 0 0 0 0 0 0 0 1 0 0 0 0 0 0 0 0 0 0 0 0 0 0 0 0 0 0 0 0 0 0 0 0 0 0 0 0 0 0
0 0 0 0 0 0 0 0 0 0 1 0 0 0 0 2 1 0 1 0 0 0 0 0 0 0 0 0 0 0 0 0 0 0 0 0 0 0 0 0 0 0 0 0 0
0 0 1 0 0 0 0 0 1 0 0 0 0 0 0 0 0 0 0 0 0 0 0 0 0 0 0 0 0 0 0 0 0 0 0 0 0 0 0 0 0 0 0 0 0
CIN
-0 -0 -0 -0 -0 -0 -0 -0 -0 -0 -0 -0 -0 -0 -0 -0 -0 -0 -0 -0 -0 -0 -0 -0 -0 -0 -0 -0 -0 -0 -0 -0 -0 -0 -0 -0 -0 -0 -34 -330 -0 -478 -434 -480 -544
-0 -0 -0 -0 -0 -0 -0 -0 -0 -0 -0 -0 -0 -0 -0 -0 -0 -0 -0 -0 -0 -0 -0 -0 -0 -0 -0 -0 -0 -0 -0 -0 -0 -0 -0 -0 -0 -0 -0 -0 -0 -0 -0 -220 -242
-0 -0 -0 -0 -0 -0 -0 -0 -0 -0 -0 -0 -0 -0 -0 -0 -0 -0 -0 -0 -0 -0 -0 -0 -0 -0 -0 -0 -0 -0 -0 -0 -0 -0 -0 -0 -0 -0 -0 -0 -0 -0 -0 -0 -0
-0 -0 -0 -0 -0 -0 -0 -0 -0 -0 -0 -0 -0 -0 -0 -0 -0 -0 -0 -0 -0 -0 -0 -0 -0 -0 -0 -0 -0 -0 -0 -0 -0 -0 -0 -0 -0 -0 -0 -0 -0 -0 -0 -0 -0
-0 -0 -0 -0 -0 -0 -0 -0 -0 -0 -0 -0 -0 -0 -0 -0 -0 -0 -0 -0 -0 -0 -0 -0 -0 -0 -0 -0 -0 -0 -0 -0 -0 -0 -0 -0 -0 -0 -0 -0 -0 -0 -0 -0 -0
-0 -0 -0 -0 -0 -0 -0 -0 -0 -0 -0 -0 -0 -0 -0 -0 -0 -0 -0 -0 -0 -0 -0 -0 -0 -0 -0 -0 -0 -0 -0 -0 -0 -0 -0 -0 -0 -0 -0 -0 -0 -0 -0 -0 -0
-0 -0 -0 -0 -0 -0 -0 -0 -0 -0 -0 -0 -0 -0 -0 -0 -0 -0 -0 -0 -0 -0 -0 -0 -0 -0 -0 -0 -0 -0 -0 -0 -0 -0 -0 -0 -0 -0 -0 -0 -0 -0 -0 -0 -0
-0 -0 -0 -0 -0 -0 -0 -0 -0 -0 -0 -0 -0 -0 -0 -0 -0 -0 -0 -0 -0 -0 -0 -0 -0 -0 -0 -0 -0 -0 -0 -0 -0 -0 -0 -0 -0 -0 -0 -0 -0 -0 -0 -0 -0
-0 -0 -0 -0 -0 -0 -0 -0 -0 -0 -0 -0 -0 -0 -0 -0 -0 -0 -0 -0 -0 -0 -0 -0 -0 -0 -0 -0 -0 -0 -0 -0 -0 -0 -0 -0 -0 -0 -0 -0 -0 -0 -0 -0 -0
-0 -0 -0 -0 -0 -0 -0 -0 -0 -0 -0 -0 -0 -0 -0 -0 -0 -0 -0 -0 -0 -0 -0 -0 -0 -0 -0 -0 -0 -0 -0 -0 -0 -0 -0 -0 -0 -0 -0 -0 -0 -0 -0 -0 -0
-0 -0 -0 -0 -0 -0 -0 -0 -0 -0 -0 -0 -0 -0 -0 -0 -0 -0 -0 -0 -0 -0 -0 -0 -0 -0 -0 -0 -0 -0 -0 -0 -0 -0 -0 -0 -0 -0 -0 -0 -0 -0 -0 -0 -0
-0 -0 -0 -0 -0 -0 -0 -0 -0 -0 -0 -0 -0 -0 -0 -0 -0 -0 -0 -0 -0 -0 -0 -0 -0 -0 -0 -0 -0 -0 -0 -0 -0 -0 -0 -0 -0 -0 -0 -0 -0 -0 -0 -0 -0
-0 -0 -0 -0 -0 -0 -0 -0 -0 -0 -0 -0 -0 -0 -0 -0 -0 -0 -0 -0 -0 -0 -0 -0 -0 -0 -0 -0 -0 -0 -0 -0 -0 -0 -0 -0 -0 -0 -0 -0 -0 -0 -0 -0 -0
-0 -0 -0 -0 -0 -0 -0 -0 -0 -0 -0 -0 -0 -0 -0 -0 -0 -0 -0 -0 -0 -0 -0 -0 -0 -0 -0 -0 -0 -0 -0 -0 -0 -0 -0 -0 -0 -0 -0 -0 -0 -0 -0 -0 -0
-0 -0 -0 -0 -0 -0 -0 -0 -0 -0 -0 -0 -0 -0 -0 -0 -0 -0 -0 -0 -0 -0 -0 -0 -0 -0 -0 -0 -0 -0 -0 -0 -0 -0 -0 -0 -0 -0 -0 -0 -0 -0 -0 -0 -0
-0 -0 -0 -0 -0 -0 -0 -0 -0 -0 -0 -0 -0 -0 -0 -0 -0 -0 -0 -0 -0 -0 -0 -0 -0 -0 -0 -0 -0 -0 -0 -0 -0 -0 -0 -0 -0 -0 -0 -0 -0 -0 -0 -0 -0
-0 -0 -0 -0 -0 -0 -0 -0 -0 -0 -0 -0 -0 -0 -0 -0 -0 -0 -0 -0 -0 -0 -0 -0 -0 -0 -0 -0 -0 -0 -0 -0 -0 -0 -0 -0 -0 -0 -0 -0 -0 -0 -0 -0 -0
-0 -0 -0 -0 -0 -0 -0 -0 -0 -0 -0 -0 -0 -0 -0 -0 -0 -0 -0 -0 -0 -0 -0 -0 -0 -0 -0 -0 -0 -0 -0 -0 -0 -0 -0 -0 -0 -0 -0 -0 -0 -0 -0 -0 -0
-0 -0 -0 -0 -0 -0 -0 -0 -0 -0 -0 -0 -0 -0 -0 -0 -0 -0 -0 -0 -0 -0 -0 -0 -0 -0 -0 -0 -0 -0 -0 -0 -0 -0 -0 -0 -0 -0 -0 -0 -0 -0 -0 -0 -0
-0 -0 -0 -0 -0 -0 -0 -0 -0 -0 -0 -0 -0 -0 -0 -0 -0 -0 -0 -0 -0 -0 -0 -0 -0 -0 -0 -0 -0 -0 -0 -0 -0 -0 -0 -0 -0 -0 -0 -0 -0 -0 -0 -0 -0
-0 -0 -0 -0 -10 -0 -0 -0 -0 -0 -0 -0 -0 -0 -0 -0 -0 -0 -0 -0 -0 -0 -0 -0 -0 -0 -0 -0 -0 -0 -0 -0 -0 -0 -0 -0 -0 -0 -0 -0 -0 -0 -0 -0 -0
-0 -0 -0 -0 -1 -1 -0 -0 -0 -0 -0 -0 -0 -0 -0 -0 -0 -0 -0 -0 -0 -0 -0 -0 -0 -0 -0 -0 -0 -0 -0 -0 -0 -0 -0 -0 -0 -0 -0 -0 -0 -0 -0 -0 -0
-0 -0 -0 -0 -0 -0 -0 -0 -0 -0 -0 -0 -0 -0 -0 -0 -0 -0 -0 -0 -0 -0 -0 -0 -0 -0 -0 -0 -0 -0 -0 -0 -0 -0 -0 -0 -0 -0 -0 -0 -0 -0 -0 -0 -0
-0 -0 -0 -0 -1 -0 -0 -0 -0 -0 -0 -0 -1 -0 -0 -0 -0 -0 -0 -0 -0 -0 -0 -0 -0 -0 -0 -0 -0 -0 -0 -0 -0 -0 -0 -0 -0 -0 -0 -0 -0 -0 -0 -0 -0
-5 -3 -0 -0 -0 -0 -0 -0 -0 -0 -0 -0 -0 -0 -0 -0 -0 -0 -0 -0 -0 -0 -0 -0 -0 -0 -0 -0 -0 -0 -0 -0 -0 -0 -0 -0 -0 -0 -0 -0 -0 -0 -0 -0 -0
-0 -0 -0 -0 -0 -0 -0 -0 -0 -0 -3 -0 -0 -0 -0 -0 -0 -0 -0 -0 -0 -0 -0 -0 -0 -0 -0 -0 -0 -0 -0 -0 -0 -0 -0 -0 -0 -0 -0 -0 -0 -0 -0 -0 -0
-1 -0 -0 -0 -0 -0 -0 -0 -1 -0 -0 -0 -0 -0 -0 -0 -0 -0 -0 -0 -0 -0 -0 -0 -0 -0 -0 -0 -0 -0 -0 -0 -0 -0 -0 -0 -0 -0 -0 -0 -0 -0 -0 -0 -0
Wind_Speed
32 32 33 33 33 33 33 33 33 33 33 33 33 33 33 33 34 28 32 25 21 22 24 25 21 20 16 18 17 15 19 20 16 11 10 11 7 11 10 7 12 12 10 13 14
33 34 34 34 34 34 34 34 34 34 33 33 33 33 33 32 29 35 31 24 22 23 23 23 23 20 17 18 18 17 20 20 17 10 7 5 6 11 6 7 9 9 11 10 9
34 34 35 35 35 35 35 35 35 34 34 33 33 32 31 30 30 28 24 23 22 21 21 22 21 20 20 18 18 17 22 18 14 10 6 4 7 10 3 10 11 7 7 8 9
35 35 35 36 35 35 35 35 35 35 34 33 32 31 31 23 26 20 19 20 20 19 21 21 21 22 21 19 18 19 16 15 11 8 6 9 8 8 7 6 6 7 8 10 11
36 36 37 36 36 36 36 36 35 35 34 32 31 29 24 26 29 22 19 20 20 20 21 20 22 23 24 21 18 18 14 12 10 8 6 2 4 4 4 5 7 8 11 12 13
36 37 37 37 37 37 37 37 36 36 34 31 28 26 24 31 22 22 20 19 22 22 22 21 20 21 23 23 21 16 13 11 10 9 10 5 9 11 7 4 6 8 11 12 14
37 38 38 39 38 38 37 37 36 35 32 28 24 21 25 28 18 18 21 23 21 22 25 22 21 23 19 22 20 12 13 14 13 12 8 7 15 11 5 4 5 7 10 12 14
38 39 39 39 39 39 38 36 35 34 28 23 19 19 28 21 25 26 23 23 24 24 24 25 21 22 22 19 20 20 17 20 20 15 17 16 18 11 6 4 5 6 9 11 14
40 40 40 40 40 40 37 35 31 20 16 15 18 21 28 26 23 23 22 23 24 24 23 22 22 24 20 20 23 26 27 26 23 22 19 20 16 14 10 7 5 6 7 10 13
40 41 40 41 41 39 36 30 19 17 16 16 19 23 24 22 21 19 21 22 24 23 25 25 25 29 27 26 33 29 27 27 26 24 20 18 17 12 11 9 7 6 7 9 11
41 41 41 41 40 36 32 19 22 20 22 19 21 21 23 22 18 18 17 20 22 24 28 26 32 40 34 27 27 24 27 28 25 21 20 20 16 15 13 11 9 8 8 9 11
41 41 41 41 39 31 23 18 19 21 29 22 16 28 33 22 23 23 19 23 24 30 28 30 39 34 28 26 24 24 25 25 22 22 21 18 18 17 14 13 9 8 8 9 10
42 41 40 40 34 22 21 19 26 24 24 29 16 18 18 13 23 26 17 22 27 30 31 35 31 29 29 31 29 26 28 29 27 21 17 17 23 21 20 17 14 12 8 8 8
42 41 39 39 18 27 20 28 30 21 27 24 18 17 10 13 22 15 13 21 26 31 31 36 37 30 32 35 30 32 27 25 24 24 28 25 33 28 21 18 15 12 9 5 6
43 41 38 31 26 23 22 31 30 16 28 18 15 15 9 9 16 17 15 22 27 27 26 32 31 33 35 35 27 37 20 24 26 27 24 31 30 30 20 20 17 11 7 5 4
44 43 39 27 24 19 28 31 16 19 18 20 13 12 12 15 18 15 15 18 23 30 32 35 27 29 32 30 32 27 21 18 22 27 36 31 32 32 24 20 15 14 8 5 2
45 44 38 26 22 21 27 19 20 19 20 21 18 15 12 18 20 19 17 23 27 30 35 30 31 27 24 28 26 24 22 28 31 35 36 26 31 35 22 19 16 13 9 7 3
46 43 30 24 23 20 18 18 22 25 24 22 20 18 14 17 24 23 23 29 30 28 29 33 37 29 25 29 29 28 29 35 35 38 33 21 34 30 21 16 15 13 11 7 4
46 33 24 26 20 13 17 24 27 25 24 26 24 21 20 22 23 26 32 31 28 29 31 33 35 27 27 24 23 30 34 27 28 29 30 32 30 27 16 15 15 14 12 9 6
40 29 25 32 12 15 22 28 28 22 26 26 27 23 25 23 23 25 25 26 33 31 29 27 34 29 27 24 26 32 24 31 28 34 36 37 38 31 18 17 15 14 14 11 8
32 26 22 31 16 19 27 29 29 29 28 26 26 27 26 26 27 29 28 28 22 26 29 29 29 27 26 32 32 28 33 28 29 26 35 36 43 24 18 18 17 16 14 12 9
30 28 27 26 22 22 28 28 30 31 28 30 29 30 31 29 30 32 37 31 22 23 30 34 28 34 32 28 31 30 34 32 34 32 29 31 39 20 17 20 18 16 14 11 9
35 26 25 22 25 26 28 30 28 31 32 29 30 26 26 30 33 30 31 34 28 22 24 28 36 35 31 32 31 37 34 34 32 30 36 36 36 26 18 15 16 16 14 12 10
31 30 25 22 21 27 31 28 30 32 31 30 35 37 37 36 31 35 34 28 29 34 28 21 34 39 42 33 29 36 38 33 34 39 35 38 31 21 18 16 16 16 15 14 12
28 26 26 29 30 34 31 33 36 33 28 30 29 29 32 36 38 35 31 35 30 27 28 29 41 38 37 32 32 35 40 40 43 44 42 43 37 20 16 17 18 16 16 15 13
28 27 29 33 30 33 31 34 35 33 32 35 34 36 36 36 37 42 38 32 34 27 28 30 38 34 41 36 38 41 39 41 50 46 46 40 42 25 19 19 18 18 17 16 14
25 26 28 31 34 35 32 33 36 39 33 32 37 43 43 43 42 48 46 47 47 44 40 34 35 35 46 35 35 45 49 42 41 43 39 40 35 22 23 21 19 20 20 18 15
Wind_Direction
331 327 323 320 316 314 310 308 306 304 302 300 296 293 290 290 284 280 269 278 283 286 287 281 281 286 285 272 270 275 261 253 251 232 246 259 261 282 294 311 309 321 37 72 79
333 328 324 319 317 313 310 307 305 304 302 300 297 294 291 291 288 271 271 277 280 284 284 276 270 278 276 268 267 265 261 255 255 247 217 248 264 273 317 323 320 345 9 32 35
332 329 327 322 318 315 310 307 305 304 302 300 297 294 293 291 282 277 280 269 277 283 281 279 273 272 266 265 264 264 261 260 251 233 207 219 269 280 308 312 298 332 1 358 2
334 329 324 322 318 315 311 308 305 303 302 301 298 295 292 292 277 286 285 275 276 282 277 273 266 262 260 259 262 259 262 253 229 225 212 253 269 286 309 326 2 5 7 2 345
329 326 323 318 315 313 309 308 306 303 302 301 299 299 295 281 273 283 284 278 278 275 271 270 263 257 254 256 260 257 249 242 223 232 244 182 279 301 328 347 11 21 12 4 356
328 323 320 318 314 310 305 302 302 302 302 301 302 301 290 277 287 279 277 279 272 269 268 266 265 262 259 254 253 253 243 222 230 234 246 201 267 277 289 327 355 3 358 354 352
323 320 317 315 311 307 302 298 296 298 301 302 306 306 288 278 291 285 279 271 274 270 263 266 270 259 261 253 254 232 227 229 229 241 222 249 270 267 272 316 346 356 0 2 356
326 321 316 312 310 305 300 294 289 292 303 307 312 308 285 296 286 274 274 273 268 269 265 262 270 263 257 256 244 234 236 228 237 232 255 261 254 258 264 277 305 347 355 358 353
324 320 318 314 310 305 298 293 300 333 339 334 316 305 287 293 282 273 269 269 271 264 265 264 263 258 252 241 234 237 232 239 236 249 253 261 248 252 262 268 286 324 347 354 353
324 318 315 314 311 306 302 302 346 349 346 333 314 302 292 293 287 281 268 269 265 262 258 255 254 248 243 236 230 231 234 240 238 245 254 253 252 240 255 257 271 298 327 344 347
323 320 315 312 310 302 316 340 333 330 321 311 310 301 296 298 295 283 275 270 261 257 250 250 245 239 238 238 243 231 239 239 246 246 251 250 238 243 250 259 265 283 306 327 343
324 321 318 310 305 308 331 343 343 330 313 312 304 288 276 292 287 279 275 263 255 250 250 249 244 247 249 245 242 242 234 236 245 246 248 238 244 250 249 258 260 271 295 317 332
325 323 320 312 300 330 326 337 325 328 320 309 310 295 285 291 284 275 267 263 256 251 248 245 249 246 245 240 240 240 231 234 236 244 245 233 255 250 257 264 266 277 296 321 327
327 324 325 319 331 319 315 312 314 330 314 315 316 308 281 290 289 281 269 267 257 252 250 251 248 253 242 238 237 239 237 233 227 231 241 248 257 254 251 255 260 267 279 306 316
324 322 323 326 316 316 312 307 307 332 305 330 327 323 305 274 302 285 272 263 255 251 250 248 250 246 240 236 235 243 231 230 232 240 240 248 257 259 245 250 250 251 254 268 300
319 317 319 323 315 314 304 301 317 304 300 314 330 320 302 275 285 293 274 269 263 253 254 251 258 246 245 246 240 243 232 234 237 244 247 243 250 258 235 237 234 244 235 236 258
320 315 317 317 306 316 305 306 292 284 305 301 304 303 296 282 274 276 270 259 252 248 245 250 246 250 248 242 241 227 212 231 238 240 246 240 250 256 243 236 213 202 208 209 200
322 318 324 318 308 308 305 287 277 289 282 300 301 296 287 284 270 269 267 257 252 251 248 242 241 242 245 243 239 217 220 228 237 240 244 246 253 257 246 226 222 212 200 208 212
325 332 333 325 320 308 286 274 279 280 294 284 288 285 278 278 277 267 261 260 259 244 246 243 244 249 248 248 234 232 232 232 243 253 243 248 259 265 242 218 216 207 192 205 215
329 331 332 324 330 304 281 277 278 286 293 285 277 279 275 274 269 269 266 272 256 250 248 255 247 249 248 248 247 235 230 231 245 240 246 250 253 257 225 215 210 193 211 213 221
337 329 328 328 323 298 281 278 282 283 290 281 276 276 276 276 270 265 266 266 269 256 245 251 252 250 246 241 238 239 232 242 242 252 247 253 254 255 217 204 198 207 209 206 210
336 323 327 325 302 298 287 284 286 280 282 279 276 273 272 278 274 267 260 262 273 263 248 244 254 249 247 251 248 245 240 240 238 245 257 259 260 255 226 205 204 211 206 207 208
329 325 329 322 301 297 294 288 288 283 276 277 273 274 276 272 270 272 271 264 265 261 258 245 244 246 248 250 248 243 243 243 247 252 252 255 259 259 249 230 215 203 199 206 207
328 319 321 321 313 303 296 289 287 290 281 278 272 273 272 267 268 265 268 277 270 260 260 255 246 245 243 249 247 247 244 245 245 248 252 254 260 251 242 223 213 203 205 207 205
332 322 323 308 301 298 295 288 284 284 287 285 276 274 276 265 266 266 271 273 269 265 257 253 248 248 251 252 252 251 248 246 246 247 248 250 254 241 219 211 205 214 216 212 203
330 325 317 306 304 299 294 286 283 282 282 277 277 278 276 268 266 264 270 269 262 265 258 254 251 253 249 251 251 250 250 247 242 245 248 251 252 249 241 241 228 215 204 202 205
332 326 316 304 299 296 291 288 285 287 284 281 278 277 272 271 270 270 268 263 257 258 258 254 250 250 248 253 256 252 244 248 250 248 248 248 254 247 242 232 212 199 197 204 206